COSMOS 2251 DEB, 46432

Orbit data source: Space-Track

COSMOS 2251 DEB, 46432 is space debris in LEO originally from a launch on Wed, 16 Jun 1993 UTC launched from the Plesetsk Missile And Space Complex (PKMTR). The debris from Iridium 33, an American commercial communications satellite, has been tracked extensively since its accidental collision with the defunct Russian satellite Cosmos 2251 in 2009. This event, occurring at high speed in low Earth orbit (LEO), generated thousands of pieces of space debris, significantly increasing the risk of further collisions. The Iridium 33 debris cloud has impacted space traffic management and orbital debris mitigation strategies, making it a subject of ongoing study in space situational awareness.

Loading next visibility...
Identifier
46432, 1993-036BWW
Orbit
LEO
Country
Flag of CISCIS
Related business
Manufacturer
Unknown
Mission
Spacecraft
Bus & Motor
Unknown
Mass
Unknown
Launch date (UTC)
1993-06-16 (33 years ago)
Launch vehicle
Unknown
Launch site
Plesetsk Missile And Space Complex (PKMTR)
Object type
Payload
Rocket body
Debris
Shape & HBR
Unknown shape, 0.1 m
Radar Cross Section
Small (<0.1 m²)

Expand to show TLE details & history
Last TLE update: 6 days ago

TLE from 6 days ago
0 COSMOS 2251 DEB
1 46432U 93036BWW 26117.14129816  .00000285  00000-0  31068-3 0  9995
2 46432  73.8712 257.9082 0473311 352.4386 189.8156 13.36839862687752
Epoch: 2026-04-27T03:23Z
TLE epoch observation values (Epoch: 2026-04-27T03:23:28.161Z)
Latitude
-1.43802°
Longitude
172.31956°
Altitude
1,474.017 km
Speed
6.958 km/s
True Right ascension
05h 13m 17s
True Declination
-1° 25' 49"
Sunlit
Object was in daylight at epoch
Visualization orbit readout
Latitude
Unknown
Longitude
Unknown
Altitude
Unknown
Speed
Unknown
Apparent Right ascension
Unknown
Apparent Declination
Unknown
Sunlit
N/A
Visualization observer readout
Local Sidereal Time
17:11:08
Azimuth
Unknown
Elevation
Unknown
Doppler factor
Unknown
Orbital elements
Apogee altitude
1,473.654 km
Perigee altitude
763.976 km
Semi-major axis
7,496.952 km
Eccentricity
0.04733
Inclination
73.8712°
RAAN
257.9082°
Arg. of periapsis
352.4386°
True anomaly
188.94204°
Mean anomaly
189.8156°
Eccentric anomaly
189.3739°
Mean motion
3.34361 °/min
Orbital period
107.67 mins
BSTAR
0.00031068
Loading maneuver chart data...
Computing Atmospheric mass density...
Loading historical data...
Loading historical data...
Loading historical data...
Loading historical data...
Loading historical data...
Loading historical data...
Loading historical data...

Documentation

Showing up to 5 results
|